| time (UTC) | temp F | wind direction | speed knots | gust knots | rain 1hr in | rain 24hr in | rain mn in | humidity % | barometer mb |
| 20260508214332 | 71 | 238 | 0.0 | 0.0 | 0.00 | 0.00 | 0.00 | 73 | 1015.7 |
| 20260508213829 | 71 | 238 | 0.0 | 0.0 | 0.00 | 0.00 | 0.00 | 73 | 1015.9 |
| 20260508213325 | 71 | 238 | 0.0 | 0.0 | 0.00 | 0.00 | 0.00 | 73 | 1015.7 |
| 20260508212821 | 71 | 238 | 0.0 | 0.0 | 0.00 | 0.00 | 0.00 | 73 | 1015.6 |
| 20260508212318 | 72 | 238 | 0.0 | 0.0 | 0.00 | 0.00 | 0.00 | 73 | 1015.6 |
| 20260508211814 | 72 | 238 | 0.0 | 0.0 | 0.00 | 0.00 | 0.00 | 72 | 1015.5 |
| 20260508211309 | 73 | 237 | 0.0 | 0.0 | 0.00 | 0.00 | 0.00 | 69 | 1015.5 |
| 20260508210807 | 73 | 237 | 0.0 | 0.0 | 0.00 | 0.00 | 0.00 | 67 | 1015.5 |
| 20260508210304 | 73 | 237 | 0.0 | 0.0 | 0.00 | 0.00 | 0.00 | 65 | 1015.4 |
| 20260508205801 | 73 | 240 | 0.0 | 0.0 | 0.00 | 0.00 | 0.00 | 62 | 1015.6 |
| 20260508205257 | 73 | 229 | 0.0 | 0.0 | 0.00 | 0.00 | 0.00 | 60 | 1015.3 |
| 20260508204753 | 73 | 226 | 0.0 | 0.0 | 0.00 | 0.00 | 0.00 | 64 | 1015.5 |
| 20260508204250 | 74 | 239 | 0.0 | 0.0 | 0.00 | 0.00 | 0.00 | 64 | 1015.6 |
| 20260508203746 | 74 | 221 | 0.0 | 0.0 | 0.00 | 0.00 | 0.00 | 63 | 1015.9 |
| 20260508203243 | 74 | 220 | 0.0 | 0.0 | 0.00 | 0.00 | 0.00 | 61 | 1015.8 |
| 20260508202738 | 74 | 213 | 0.0 | 0.0 | 0.00 | 0.00 | 0.00 | 61 | 1016.0 |
| 20260508202236 | 75 | 213 | 0.0 | 0.0 | 0.00 | 0.00 | 0.00 | 58 | 1016.0 |
| 20260508201733 | 74 | 212 | 0.0 | 0.0 | 0.00 | 0.00 | 0.00 | 60 | 1015.8 |
| 20260508201229 | 75 | 218 | 0.0 | 0.0 | 0.00 | 0.00 | 0.00 | 60 | 1016.1 |
| 20260508200726 | 75 | 232 | 0.0 | 0.0 | 0.00 | 0.00 | 0.00 | 57 | 1016.2 |
| 20260508200222 | 76 | 209 | 0.0 | 0.0 | 0.00 | 0.00 | 0.00 | 57 | 1016.0 |
| 20260508195719 | 75 | 228 | 0.0 | 0.0 | 0.00 | 0.00 | 0.00 | 59 | 1016.2 |
| 20260508195215 | 76 | 240 | 0.0 | 0.0 | 0.00 | 0.00 | 0.00 | 55 | 1016.4 |
| 20260508194712 | 76 | 50 | 0.0 | 0.0 | 0.00 | 0.00 | 0.00 | 53 | 1016.2 |
| 20260508194209 | 77 | 239 | 0.0 | 0.0 | 0.00 | 0.00 | 0.00 | 52 | 1016.0 |
| 20260508193706 | 76 | 214 | 0.0 | 0.0 | 0.00 | 0.00 | 0.00 | 56 | 1016.2 |
| 20260508193203 | 77 | 225 | 0.0 | 0.0 | 0.00 | 0.00 | 0.00 | 56 | 1016.2 |
| 20260508192659 | 76 | 23 | 0.0 | 0.0 | 0.00 | 0.00 | 0.00 | 54 | 1016.0 |
| 20260508192156 | 76 | 200 | 0.0 | 0.0 | 0.00 | 0.00 | 0.00 | 55 | 1016.2 |
| 20260508191654 | 75 | 251 | 0.0 | 0.0 | 0.00 | 0.00 | 0.00 | 62 | 1016.2 |
| 20260508191150 | 74 | 201 | 0.0 | 0.0 | 0.00 | 0.00 | 0.00 | 54 | 1016.5 |
| 20260508190647 | 73 | 225 | 0.0 | 0.0 | 0.00 | 0.00 | 0.00 | 64 | 1016.6 |
| 20260508190144 | 74 | 228 | 0.0 | 0.0 | 0.00 | 0.00 | 0.00 | 60 | 1016.4 |
| 20260508185640 | 75 | 199 | 0.0 | 0.0 | 0.00 | 0.00 | 0.00 | 55 | 1016.8 |
| 20260508185138 | 73 | 236 | 0.0 | 0.0 | 0.00 | 0.00 | 0.00 | 60 | 1016.8 |
| 20260508184635 | 76 | 238 | 0.0 | 0.0 | 0.00 | 0.00 | 0.00 | 54 | 1017.0 |
| 20260508184132 | 77 | 187 | 0.0 | 0.0 | 0.00 | 0.00 | 0.00 | 50 | 1017.2 |
| 20260508183629 | 76 | 259 | 0.0 | 0.0 | 0.00 | 0.00 | 0.00 | 50 | 1017.1 |
| 20260508183125 | 77 | 226 | 0.0 | 0.0 | 0.00 | 0.00 | 0.00 | 55 | 1016.9 |
| 20260508182621 | 76 | 223 | 0.0 | 0.0 | 0.00 | 0.00 | 0.00 | 55 | 1017.2 |
| 20260508182118 | 76 | 234 | 0.0 | 0.0 | 0.00 | 0.00 | 0.00 | 53 | 1017.4 |
| 20260508181613 | 75 | 259 | 0.0 | 0.0 | 0.00 | 0.00 | 0.00 | 53 | 1017.6 |
| 20260508181111 | 75 | 228 | 0.0 | 0.0 | 0.00 | 0.00 | 0.00 | 58 | 1017.7 |
| 20260508180607 | 75 | 208 | 0.0 | 0.0 | 0.00 | 0.00 | 0.00 | 53 | 1017.4 |
| 20260508180103 | 75 | 209 | 0.0 | 0.0 | 0.00 | 0.00 | 0.00 | 56 | 1017.7 |
| 20260508175600 | 74 | 188 | 0.0 | 0.0 | 0.00 | 0.00 | 0.00 | 57 | 1017.8 |
| 20260508175058 | 74 | 53 | 0.0 | 0.0 | 0.00 | 0.00 | 0.00 | 53 | 1017.6 |
| 20260508174555 | 73 | 230 | 0.0 | 0.0 | 0.00 | 0.00 | 0.00 | 54 | 1017.9 |
| 20260508174052 | 73 | 178 | 0.0 | 0.0 | 0.00 | 0.00 | 0.00 | 60 | 1017.7 |
| 20260508173549 | 73 | 246 | 0.0 | 0.0 | 0.00 | 0.00 | 0.00 | 55 | 1017.6 |
| 20260508173045 | 73 | 208 | 0.0 | 0.0 | 0.00 | 0.00 | 0.00 | 55 | 1017.8 |
| 20260508172542 | 75 | 204 | 0.0 | 0.0 | 0.00 | 0.00 | 0.00 | 53 | 1017.9 |
| 20260508172039 | 75 | 151 | 0.0 | 0.0 | 0.00 | 0.00 | 0.00 | 53 | 1018.1 |
| 20260508171535 | 75 | 207 | 0.0 | 0.0 | 0.00 | 0.00 | 0.00 | 53 | 1018.1 |
| 20260508171031 | 74 | 83 | 0.0 | 0.0 | 0.00 | 0.00 | 0.00 | 53 | 1018.2 |
| 20260508170529 | 74 | 294 | 0.0 | 0.0 | 0.00 | 0.00 | 0.00 | 53 | 1018.0 |
| 20260508170026 | 74 | 132 | 0.0 | 0.0 | 0.00 | 0.00 | 0.00 | 55 | 1018.2 |
| 20260508165523 | 73 | 229 | 0.0 | 0.0 | 0.00 | 0.00 | 0.00 | 56 | 1018.4 |
| 20260508165020 | 74 | 9 | 0.0 | 0.0 | 0.00 | 0.00 | 0.00 | 52 | 1018.5 |
| 20260508164517 | 74 | 224 | 0.0 | 0.0 | 0.00 | 0.00 | 0.00 | 60 | 1018.5 |
| 20260508164013 | 72 | 218 | 0.0 | 0.0 | 0.00 | 0.00 | 0.00 | 62 | 1018.7 |
| 20260508163511 | 72 | 223 | 0.0 | 0.0 | 0.00 | 0.00 | 0.00 | 56 | 1018.7 |
| 20260508163007 | 71 | 84 | 0.0 | 0.0 | 0.00 | 0.00 | 0.00 | 56 | 1018.6 |
| 20260508162504 | 73 | 171 | 0.0 | 0.0 | 0.00 | 0.00 | 0.00 | 55 | 1018.8 |
| 20260508162001 | 73 | 251 | 0.0 | 0.0 | 0.00 | 0.00 | 0.00 | 55 | 1018.6 |
| 20260508161458 | 72 | 224 | 0.0 | 0.0 | 0.00 | 0.00 | 0.00 | 57 | 1018.9 |
| 20260508160955 | 73 | 317 | 0.0 | 0.0 | 0.00 | 0.00 | 0.00 | 59 | 1018.7 |
| 20260508160454 | 72 | 230 | 0.0 | 0.0 | 0.00 | 0.00 | 0.00 | 56 | 1018.9 |
| 20260508155950 | 72 | 117 | 0.0 | 0.0 | 0.00 | 0.00 | 0.00 | 56 | 1018.7 |
| 20260508155447 | 72 | 173 | 0.0 | 0.0 | 0.00 | 0.00 | 0.00 | 56 | 1018.7 |
| 20260508154944 | 72 | 220 | 0.0 | 0.0 | 0.00 | 0.00 | 0.00 | 56 | 1018.9 |
| 20260508154442 | 72 | 180 | 0.0 | 0.0 | 0.00 | 0.00 | 0.00 | 51 | 1018.9 |
| 20260508153938 | 73 | 221 | 0.0 | 0.0 | 0.00 | 0.00 | 0.00 | 51 | 1019.1 |
| 20260508153435 | 73 | 155 | 0.0 | 0.0 | 0.00 | 0.00 | 0.00 | 53 | 1019.0 |
| 20260508152931 | 73 | 179 | 0.0 | 0.0 | 0.00 | 0.00 | 0.00 | 53 | 1019.0 |
| 20260508152428 | 72 | 28 | 0.0 | 0.0 | 0.00 | 0.00 | 0.00 | 54 | 1019.0 |
| 20260508151924 | 72 | 190 | 0.0 | 0.0 | 0.00 | 0.00 | 0.00 | 56 | 1019.4 |
| 20260508151421 | 72 | 186 | 0.0 | 0.0 | 0.00 | 0.00 | 0.00 | 55 | 1019.6 |
| 20260508150918 | 73 | 210 | 0.0 | 0.0 | 0.00 | 0.00 | 0.00 | 55 | 1019.5 |
| 20260508150414 | 72 | 137 | 0.0 | 0.0 | 0.00 | 0.00 | 0.00 | 55 | 1019.5 |
| 20260508145910 | 72 | 195 | 0.0 | 0.0 | 0.00 | 0.00 | 0.00 | 57 | 1019.5 |
| 20260508145407 | 71 | 219 | 0.0 | 0.0 | 0.00 | 0.00 | 0.00 | 60 | 1019.5 |
| 20260508144904 | 70 | 124 | 0.0 | 0.0 | 0.00 | 0.00 | 0.00 | 59 | 1019.7 |
| 20260508144402 | 70 | 224 | 0.0 | 0.0 | 0.00 | 0.00 | 0.00 | 63 | 1019.4 |
| 20260508143859 | 70 | 202 | 0.0 | 0.0 | 0.00 | 0.00 | 0.00 | 59 | 1019.6 |
| 20260508143356 | 70 | 28 | 0.0 | 0.0 | 0.00 | 0.00 | 0.00 | 57 | 1019.9 |
| 20260508142852 | 69 | 244 | 0.0 | 0.0 | 0.00 | 0.00 | 0.00 | 62 | 1019.5 |
| 20260508142349 | 69 | 195 | 0.0 | 0.0 | 0.00 | 0.00 | 0.00 | 60 | 1019.6 |
| 20260508141846 | 69 | 213 | 0.0 | 0.0 | 0.00 | 0.00 | 0.00 | 66 | 1019.4 |
| 20260508141343 | 68 | 21 | 0.0 | 0.0 | 0.00 | 0.00 | 0.00 | 63 | 1019.8 |
| 20260508140841 | 68 | 22 | 0.0 | 0.0 | 0.00 | 0.00 | 0.00 | 63 | 1019.7 |
| 20260508140337 | 68 | 109 | 0.0 | 0.0 | 0.00 | 0.00 | 0.00 | 62 | 1019.7 |
| 20260508135833 | 69 | 8 | 0.0 | 0.0 | 0.00 | 0.00 | 0.00 | 65 | 1019.6 |
| 20260508135329 | 68 | 153 | 0.0 | 0.0 | 0.00 | 0.00 | 0.00 | 62 | 1019.7 |
| 20260508134826 | 68 | 47 | 0.0 | 0.0 | 0.00 | 0.00 | 0.00 | 66 | 1019.5 |
| 20260508134322 | 68 | 184 | 0.0 | 0.0 | 0.00 | 0.00 | 0.00 | 64 | 1019.6 |
| 20260508133819 | 67 | 227 | 0.0 | 0.0 | 0.00 | 0.00 | 0.00 | 68 | 1019.6 |
| 20260508133317 | 68 | 115 | 0.0 | 0.0 | 0.00 | 0.00 | 0.00 | 67 | 1019.6 |
| 20260508132814 | 67 | 129 | 0.0 | 0.0 | 0.00 | 0.00 | 0.00 | 67 | 1019.5 |
| 20260508132312 | 67 | 151 | 0.0 | 0.0 | 0.00 | 0.00 | 0.00 | 69 | 1019.4 |
| 20260508131808 | 66 | 253 | 0.0 | 0.0 | 0.00 | 0.00 | 0.00 | 75 | 1019.1 |
| 20260508131304 | 66 | 346 | 0.0 | 0.0 | 0.00 | 0.00 | 0.00 | 73 | 1019.3 |
| 20260508130800 | 65 | 289 | 0.0 | 0.0 | 0.00 | 0.00 | 0.00 | 74 | 1019.1 |
| 20260508130258 | 64 | 3 | 0.0 | 0.0 | 0.00 | 0.00 | 0.00 | 79 | 1019.0 |
| 20260508125754 | 64 | 182 | 0.0 | 0.0 | 0.00 | 0.00 | 0.00 | 76 | 1018.9 |
| 20260508125250 | 63 | 73 | 0.0 | 0.0 | 0.00 | 0.00 | 0.00 | 81 | 1018.9 |
| 20260508124749 | 62 | 257 | 0.0 | 0.0 | 0.00 | 0.00 | 0.00 | 84 | 1018.7 |
| 20260508124245 | 62 | 250 | 0.0 | 0.0 | 0.00 | 0.00 | 0.00 | 85 | 1018.8 |
| 20260508123743 | 60 | 17 | 0.0 | 0.0 | 0.00 | 0.00 | 0.00 | 89 | 1019.0 |
| 20260508123241 | 59 | 250 | 0.0 | 0.0 | 0.00 | 0.00 | 0.00 | 95 | 1018.8 |
| 20260508122737 | 59 | 232 | 0.0 | 0.0 | 0.00 | 0.00 | 0.00 | 99 | 1018.9 |
| 20260508122234 | 59 | 270 | 0.0 | 0.0 | 0.00 | 0.00 | 0.00 | 99 | 1018.8 |
| 20260508121731 | 59 | 232 | 0.0 | 0.0 | 0.00 | 0.00 | 0.00 | 99 | 1018.9 |
| 20260508121230 | 58 | 233 | 0.0 | 0.0 | 0.00 | 0.00 | 0.00 | 99 | 1018.8 |
| 20260508120726 | 58 | 233 | 0.0 | 0.0 | 0.00 | 0.00 | 0.00 | 99 | 1018.4 |
| 20260508120225 | 57 | 232 | 0.0 | 0.0 | 0.00 | 0.00 | 0.00 | 99 | 1018.5 |
| 20260508115722 | 57 | 227 | 0.0 | 0.0 | 0.00 | 0.00 | 0.00 | 99 | 1018.5 |
| 20260508115219 | 57 | 236 | 0.0 | 0.0 | 0.00 | 0.00 | 0.00 | 99 | 1018.2 |
| 20260508114716 | 56 | 237 | 0.0 | 0.0 | 0.00 | 0.00 | 0.00 | 99 | 1018.3 |
| 20260508114212 | 56 | 227 | 0.0 | 0.0 | 0.00 | 0.00 | 0.00 | 99 | 1018.0 |
| 20260508113709 | 55 | 231 | 0.0 | 0.0 | 0.00 | 0.00 | 0.00 | 99 | 1018.1 |
| 20260508113208 | 55 | 235 | 0.0 | 0.0 | 0.00 | 0.00 | 0.00 | 99 | 1017.9 |
| 20260508112703 | 55 | 236 | 0.0 | 0.0 | 0.00 | 0.00 | 0.00 | 99 | 1017.8 |
| 20260508112200 | 55 | 193 | 0.0 | 0.0 | 0.00 | 0.00 | 0.00 | 99 | 1017.4 |
| 20260508111657 | 54 | 193 | 0.0 | 0.0 | 0.00 | 0.00 | 0.00 | 99 | 1017.6 |
| 20260508111155 | 54 | 192 | 0.0 | 0.0 | 0.00 | 0.00 | 0.00 | 99 | 1017.5 |
| 20260508110652 | 54 | 192 | 0.0 | 0.0 | 0.00 | 0.00 | 0.00 | 99 | 1017.3 |
| 20260508110148 | 54 | 181 | 0.0 | 0.0 | 0.00 | 0.00 | 0.00 | 99 | 1017.4 |
| 20260508105643 | 54 | 195 | 0.0 | 0.0 | 0.00 | 0.00 | 0.00 | 99 | 1017.2 |
| 20260508105140 | 54 | 195 | 0.0 | 0.0 | 0.00 | 0.00 | 0.00 | 99 | 1017.0 |
| 20260508104638 | 54 | 195 | 0.0 | 0.0 | 0.00 | 0.00 | 0.00 | 99 | 1017.1 |
| 20260508104135 | 54 | 195 | 0.0 | 0.0 | 0.00 | 0.00 | 0.00 | 99 | 1017.0 |
| 20260508103632 | 54 | 196 | 0.0 | 0.0 | 0.00 | 0.00 | 0.00 | 99 | 1016.8 |
| 20260508103129 | 54 | 195 | 0.0 | 0.0 | 0.00 | 0.00 | 0.00 | 99 | 1016.7 |
| 20260508102626 | 54 | 195 | 0.0 | 0.0 | 0.00 | 0.00 | 0.00 | 99 | 1016.8 |
| 20260508102124 | 54 | 195 | 0.0 | 0.0 | 0.00 | 0.00 | 0.00 | 99 | 1016.7 |
| 20260508101621 | 54 | 195 | 0.0 | 0.0 | 0.00 | 0.00 | 0.00 | 99 | 1016.9 |
| 20260508101118 | 54 | 196 | 0.0 | 0.0 | 0.00 | 0.00 | 0.00 | 99 | 1016.7 |
| 20260508100616 | 55 | 196 | 0.0 | 0.0 | 0.00 | 0.00 | 0.00 | 99 | 1016.5 |
| 20260508100114 | 55 | 196 | 0.0 | 0.0 | 0.00 | 0.00 | 0.00 | 99 | 1016.4 |
| 20260508095610 | 54 | 196 | 0.0 | 0.0 | 0.00 | 0.00 | 0.00 | 99 | 1016.3 |
| 20260508095107 | 54 | 195 | 0.0 | 0.0 | 0.00 | 0.00 | 0.00 | 99 | 1016.3 |
| 20260508094604 | 54 | 195 | 0.0 | 0.0 | 0.00 | 0.00 | 0.00 | 99 | 1016.3 |
| 20260508094101 | 54 | 196 | 0.0 | 0.0 | 0.00 | 0.00 | 0.00 | 99 | 1016.2 |
| 20260508093558 | 55 | 195 | 0.0 | 0.0 | 0.00 | 0.00 | 0.00 | 99 | 1016.3 |
| 20260508093056 | 55 | 196 | 0.0 | 0.0 | 0.00 | 0.00 | 0.00 | 99 | 1016.0 |
| 20260508092553 | 55 | 196 | 0.0 | 0.0 | 0.00 | 0.00 | 0.00 | 99 | 1016.0 |
| 20260508092052 | 55 | 196 | 0.0 | 0.0 | 0.00 | 0.00 | 0.00 | 99 | 1015.8 |
| 20260508091549 | 55 | 195 | 0.0 | 0.0 | 0.00 | 0.00 | 0.00 | 99 | 1016.0 |
| 20260508091045 | 55 | 196 | 0.0 | 0.0 | 0.00 | 0.00 | 0.00 | 99 | 1016.0 |
| 20260508090543 | 55 | 195 | 0.0 | 0.0 | 0.00 | 0.00 | 0.00 | 99 | 1015.8 |
| 20260508090039 | 55 | 195 | 0.0 | 0.0 | 0.00 | 0.00 | 0.00 | 99 | 1015.4 |
| 20260508085536 | 55 | 195 | 0.0 | 0.0 | 0.00 | 0.00 | 0.00 | 99 | 1015.6 |
| 20260508085033 | 55 | 195 | 0.0 | 0.0 | 0.00 | 0.00 | 0.00 | 99 | 1015.5 |
| 20260508084530 | 55 | 196 | 0.0 | 0.0 | 0.00 | 0.00 | 0.00 | 98 | 1015.7 |
| 20260508084027 | 55 | 195 | 0.0 | 0.0 | 0.00 | 0.00 | 0.00 | 98 | 1015.5 |
| 20260508083525 | 55 | 195 | 0.0 | 0.0 | 0.00 | 0.00 | 0.00 | 98 | 1015.2 |
| 20260508083021 | 55 | 195 | 0.0 | 0.0 | 0.00 | 0.00 | 0.00 | 98 | 1015.3 |
| 20260508082517 | 56 | 195 | 0.0 | 0.0 | 0.00 | 0.00 | 0.00 | 97 | 1015.5 |
| 20260508082015 | 56 | 195 | 0.0 | 0.0 | 0.00 | 0.00 | 0.00 | 97 | 1015.8 |
| 20260508081512 | 56 | 195 | 0.0 | 0.0 | 0.00 | 0.00 | 0.00 | 97 | 1015.4 |
| 20260508081008 | 56 | 195 | 0.0 | 0.0 | 0.00 | 0.00 | 0.00 | 96 | 1015.5 |
| 20260508080506 | 56 | 195 | 0.0 | 0.0 | 0.00 | 0.00 | 0.00 | 96 | 1015.4 |
| 20260508080003 | 56 | 195 | 0.0 | 0.0 | 0.00 | 0.00 | 0.00 | 97 | 1015.7 |
| 20260508075459 | 57 | 195 | 0.0 | 0.0 | 0.00 | 0.00 | 0.00 | 97 | 1015.8 |
| 20260508074957 | 57 | 195 | 0.0 | 0.0 | 0.00 | 0.00 | 0.00 | 97 | 1015.3 |
| 20260508074455 | 57 | 195 | 0.0 | 0.0 | 0.00 | 0.00 | 0.00 | 96 | 1015.6 |
| 20260508073951 | 57 | 196 | 0.0 | 0.0 | 0.00 | 0.00 | 0.00 | 96 | 1015.4 |
| 20260508073449 | 57 | 196 | 0.0 | 0.0 | 0.00 | 0.00 | 0.00 | 96 | 1015.3 |
| 20260508072946 | 57 | 195 | 0.0 | 0.0 | 0.00 | 0.00 | 0.00 | 96 | 1015.5 |
| 20260508072442 | 57 | 196 | 0.0 | 0.0 | 0.00 | 0.00 | 0.00 | 96 | 1015.4 |
| 20260508071939 | 57 | 195 | 0.0 | 0.0 | 0.00 | 0.00 | 0.00 | 96 | 1015.4 |
| 20260508071437 | 57 | 195 | 0.0 | 0.0 | 0.00 | 0.00 | 0.00 | 96 | 1015.3 |
| 20260508070935 | 58 | 195 | 0.0 | 0.0 | 0.00 | 0.00 | 0.00 | 95 | 1015.5 |
| 20260508070432 | 58 | 195 | 0.0 | 0.0 | 0.00 | 0.00 | 0.00 | 93 | 1015.4 |
| 20260508065930 | 58 | 195 | 0.0 | 0.0 | 0.00 | 0.00 | 0.00 | 92 | 1015.4 |
| 20260508065428 | 58 | 195 | 0.0 | 0.0 | 0.00 | 0.00 | 0.00 | 92 | 1015.4 |
| 20260508064926 | 58 | 194 | 0.0 | 0.0 | 0.00 | 0.00 | 0.00 | 92 | 1015.1 |
| 20260508064423 | 59 | 196 | 0.0 | 0.0 | 0.00 | 0.00 | 0.00 | 91 | 1015.2 |
| 20260508063920 | 59 | 196 | 0.0 | 0.0 | 0.00 | 0.00 | 0.00 | 92 | 1015.2 |
| 20260508063418 | 59 | 196 | 0.0 | 0.0 | 0.00 | 0.00 | 0.00 | 91 | 1015.4 |
| 20260508062915 | 59 | 196 | 0.0 | 0.0 | 0.00 | 0.00 | 0.00 | 93 | 1015.1 |
| 20260508062413 | 59 | 196 | 0.0 | 0.0 | 0.00 | 0.00 | 0.00 | 92 | 1015.3 |
| 20260508061909 | 59 | 197 | 0.0 | 0.0 | 0.00 | 0.00 | 0.00 | 94 | 1015.2 |
| 20260508061407 | 59 | 197 | 0.0 | 0.0 | 0.00 | 0.00 | 0.00 | 94 | 1015.3 |
| 20260508060903 | 59 | 197 | 0.0 | 0.0 | 0.00 | 0.00 | 0.00 | 94 | 1015.3 |
| 20260508060401 | 59 | 197 | 0.0 | 0.0 | 0.00 | 0.00 | 0.00 | 94 | 1015.5 |
| 20260508055901 | 59 | 197 | 0.0 | 0.0 | 0.00 | 0.00 | 0.00 | 94 | 1015.3 |
| 20260508055359 | 59 | 197 | 0.0 | 0.0 | 0.00 | 0.00 | 0.00 | 94 | 1015.3 |
| 20260508054855 | 59 | 197 | 0.0 | 0.0 | 0.00 | 0.00 | 0.00 | 93 | 1015.3 |
| 20260508054352 | 60 | 196 | 0.0 | 0.0 | 0.00 | 0.00 | 0.00 | 94 | 1015.3 |
| 20260508053849 | 60 | 197 | 0.0 | 0.0 | 0.00 | 0.00 | 0.00 | 94 | 1015.5 |
| 20260508053347 | 60 | 197 | 0.0 | 0.0 | 0.00 | 0.00 | 0.00 | 93 | 1015.2 |
| 20260508052844 | 60 | 197 | 0.0 | 0.0 | 0.00 | 0.00 | 0.00 | 92 | 1015.2 |
| 20260508052342 | 60 | 197 | 0.0 | 0.0 | 0.00 | 0.00 | 0.00 | 92 | 1015.4 |
| 20260508051837 | 61 | 197 | 0.0 | 0.0 | 0.00 | 0.00 | 0.00 | 90 | 1015.4 |
| 20260508051333 | 61 | 196 | 0.0 | 0.0 | 0.00 | 0.00 | 0.00 | 90 | 1015.2 |
| 20260508050829 | 62 | 196 | 0.0 | 0.0 | 0.00 | 0.00 | 0.00 | 89 | 1015.1 |
| 20260508050327 | 61 | 201 | 0.0 | 0.0 | 0.00 | 0.00 | 0.00 | 90 | 1015.2 |
| 20260508045822 | 61 | 254 | 0.0 | 0.0 | 0.00 | 0.00 | 0.00 | 91 | 1015.2 |
| 20260508045320 | 62 | 219 | 0.0 | 0.0 | 0.00 | 0.00 | 0.00 | 91 | 1015.3 |
| 20260508044818 | 62 | 232 | 0.0 | 0.0 | 0.00 | 0.00 | 0.00 | 92 | 1015.2 |
| 20260508044314 | 62 | 200 | 0.0 | 0.0 | 0.00 | 0.00 | 0.00 | 92 | 1015.2 |
| 20260508043810 | 62 | 201 | 0.0 | 0.0 | 0.00 | 0.00 | 0.00 | 92 | 1015.0 |
| 20260508043308 | 62 | 200 | 0.0 | 0.0 | 0.00 | 0.00 | 0.00 | 91 | 1015.0 |
| 20260508042804 | 63 | 201 | 0.0 | 0.0 | 0.00 | 0.00 | 0.00 | 89 | 1014.9 |
| 20260508042306 | 63 | 201 | 0.0 | 0.0 | 0.00 | 0.00 | 0.00 | 88 | 1014.9 |
| 20260508041758 | 63 | 201 | 0.0 | 0.0 | 0.00 | 0.00 | 0.00 | 87 | 1014.8 |
| 20260508041255 | 64 | 201 | 0.0 | 0.0 | 0.00 | 0.00 | 0.00 | 86 | 1014.6 |
| 20260508040751 | 64 | 200 | 0.0 | 0.0 | 0.00 | 0.00 | 0.00 | 86 | 1014.9 |
| 20260508040248 | 64 | 200 | 0.0 | 0.0 | 0.00 | 0.00 | 0.00 | 85 | 1014.9 |
| 20260508035746 | 64 | 199 | 0.0 | 0.0 | 0.00 | 0.05 | 0.05 | 85 | 1015.0 |
| 20260508035243 | 65 | 217 | 0.0 | 0.0 | 0.00 | 0.05 | 0.05 | 84 | 1014.8 |
| 20260508034739 | 65 | 206 | 0.0 | 0.0 | 0.00 | 0.05 | 0.05 | 84 | 1014.9 |
| 20260508034237 | 65 | 193 | 0.0 | 0.0 | 0.00 | 0.05 | 0.05 | 85 | 1014.8 |
| 20260508033734 | 66 | 225 | 0.0 | 0.0 | 0.00 | 0.05 | 0.05 | 85 | 1014.9 |
| 20260508033232 | 66 | 226 | 0.0 | 0.0 | 0.00 | 0.05 | 0.05 | 83 | 1014.7 |
| 20260508032729 | 66 | 229 | 0.0 | 0.0 | 0.00 | 0.05 | 0.05 | 84 | 1014.6 |
| 20260508032226 | 66 | 222 | 0.0 | 0.0 | 0.00 | 0.05 | 0.05 | 84 | 1014.7 |
| 20260508031723 | 66 | 210 | 0.0 | 0.0 | 0.00 | 0.05 | 0.05 | 87 | 1014.6 |
| 20260508031219 | 67 | 7 | 0.0 | 0.0 | 0.00 | 0.05 | 0.05 | 82 | 1014.6 |
| 20260508030716 | 66 | 141 | 0.0 | 0.0 | 0.00 | 0.05 | 0.05 | 83 | 1014.4 |
| 20260508030214 | 66 | 71 | 0.0 | 0.0 | 0.00 | 0.05 | 0.05 | 87 | 1014.6 |
| 20260508025710 | 67 | 215 | 0.0 | 0.0 | 0.00 | 0.05 | 0.05 | 88 | 1014.4 |
| 20260508025207 | 68 | 202 | 0.0 | 0.0 | 0.00 | 0.05 | 0.05 | 85 | 1014.5 |
| 20260508024703 | 67 | 220 | 0.0 | 0.0 | 0.00 | 0.05 | 0.05 | 88 | 1014.3 |
| 20260508024200 | 67 | 233 | 0.0 | 0.0 | 0.00 | 0.05 | 0.05 | 86 | 1014.2 |
| 20260508023656 | 67 | 144 | 0.0 | 0.0 | 0.00 | 0.05 | 0.05 | 87 | 1014.0 |
| 20260508023154 | 68 | 250 | 0.0 | 0.0 | 0.00 | 0.05 | 0.05 | 87 | 1013.7 |
| 20260508022649 | 68 | 124 | 0.0 | 0.0 | 0.00 | 0.05 | 0.05 | 90 | 1013.9 |
| 20260508022147 | 68 | 231 | 0.0 | 0.0 | 0.00 | 0.05 | 0.05 | 91 | 1013.9 |
| 20260508021643 | 68 | 173 | 0.0 | 0.0 | 0.00 | 0.05 | 0.05 | 90 | 1014.0 |
| 20260508021138 | 68 | 229 | 0.0 | 0.0 | 0.00 | 0.05 | 0.05 | 89 | 1013.9 |
| 20260508020636 | 69 | 206 | 0.0 | 0.0 | 0.00 | 0.05 | 0.05 | 88 | 1013.7 |
| 20260508020134 | 69 | 228 | 0.0 | 0.0 | 0.00 | 0.05 | 0.05 | 91 | 1013.6 |
| 20260508015631 | 69 | 68 | 0.0 | 0.0 | 0.00 | 0.05 | 0.05 | 90 | 1013.7 |
| 20260508015128 | 69 | 226 | 0.0 | 0.0 | 0.00 | 0.05 | 0.05 | 91 | 1013.4 |
| 20260508014624 | 69 | 234 | 0.0 | 0.0 | 0.00 | 0.05 | 0.05 | 92 | 1013.0 |
| 20260508014121 | 69 | 228 | 0.0 | 0.0 | 0.00 | 0.05 | 0.05 | 93 | 1013.2 |
| 20260508013617 | 69 | 198 | 0.0 | 0.0 | 0.00 | 0.05 | 0.05 | 92 | 1013.1 |
| 20260508013114 | 69 | 244 | 0.0 | 0.0 | 0.00 | 0.05 | 0.05 | 94 | 1012.9 |
| 20260508012611 | 69 | 206 | 0.0 | 0.0 | 0.00 | 0.05 | 0.05 | 94 | 1012.8 |
| 20260508012108 | 69 | 206 | 0.0 | 0.0 | 0.00 | 0.05 | 0.05 | 95 | 1012.7 |
| 20260508011607 | 69 | 227 | 0.0 | 0.0 | 0.00 | 0.05 | 0.05 | 95 | 1012.5 |
| 20260508011104 | 69 | 230 | 0.0 | 0.0 | 0.00 | 0.05 | 0.05 | 95 | 1012.4 |
| 20260508010600 | 69 | 226 | 0.0 | 0.0 | 0.00 | 0.05 | 0.05 | 95 | 1012.4 |
| 20260508010058 | 69 | 201 | 0.0 | 0.0 | 0.00 | 0.05 | 0.05 | 97 | 1012.4 |
| 20260508005554 | 69 | 237 | 0.0 | 0.0 | 0.00 | 0.05 | 0.05 | 97 | 1012.3 |
| 20260508005051 | 69 | 218 | 0.0 | 0.0 | 0.00 | 0.05 | 0.05 | 98 | 1012.3 |
| 20260508004547 | 69 | 240 | 0.0 | 0.0 | 0.00 | 0.05 | 0.05 | 98 | 1012.0 |
| 20260508004044 | 70 | 236 | 0.0 | 0.0 | 0.00 | 0.05 | 0.05 | 98 | 1012.1 |
| 20260508003540 | 70 | 209 | 0.0 | 0.0 | 0.00 | 0.05 | 0.05 | 98 | 1011.8 |
| 20260508003038 | 70 | 223 | 0.0 | 0.0 | 0.00 | 0.05 | 0.05 | 98 | 1011.6 |
| 20260508002534 | 70 | 224 | 0.0 | 0.0 | 0.00 | 0.05 | 0.05 | 98 | 1011.6 |
| 20260508002032 | 71 | 222 | 0.0 | 0.0 | 0.00 | 0.05 | 0.05 | 97 | 1011.6 |
| 20260508001527 | 71 | 232 | 0.0 | 0.0 | 0.00 | 0.05 | 0.05 | 97 | 1011.5 |
| 20260508001023 | 71 | 183 | 0.0 | 0.0 | 0.00 | 0.05 | 0.05 | 96 | 1011.6 |
| 20260508000519 | 71 | 227 | 0.0 | 0.0 | 0.00 | 0.05 | 0.05 | 96 | 1011.4 |
| 20260508000017 | 72 | 230 | 0.0 | 0.0 | 0.00 | 0.05 | 0.05 | 96 | 1011.4 |
| 20260507235513 | 72 | 202 | 0.0 | 0.0 | 0.00 | 0.05 | 0.05 | 95 | 1011.4 |
| 20260507235011 | 72 | 208 | 0.0 | 0.0 | 0.00 | 0.05 | 0.05 | 93 | 1011.4 |
| 20260507234507 | 72 | 242 | 0.0 | 0.0 | 0.00 | 0.05 | 0.05 | 94 | 1011.2 |
| 20260507234004 | 73 | 225 | 0.0 | 0.0 | 0.00 | 0.05 | 0.05 | 93 | 1011.3 |
| 20260507233500 | 73 | 201 | 0.0 | 0.0 | 0.00 | 0.05 | 0.05 | 92 | 1011.1 |
| 20260507232959 | 73 | 208 | 0.0 | 0.0 | 0.00 | 0.05 | 0.05 | 93 | 1010.8 |
| 20260507232455 | 73 | 233 | 0.0 | 0.0 | 0.00 | 0.05 | 0.05 | 92 | 1011.1 |
| 20260507231953 | 73 | 238 | 0.0 | 0.0 | 0.00 | 0.05 | 0.05 | 93 | 1010.9 |
| 20260507231448 | 74 | 206 | 0.0 | 0.0 | 0.00 | 0.05 | 0.05 | 91 | 1011.0 |
| 20260507230946 | 74 | 239 | 0.0 | 0.0 | 0.00 | 0.05 | 0.05 | 91 | 1010.9 |
| 20260507230443 | 74 | 224 | 0.0 | 0.0 | 0.00 | 0.05 | 0.05 | 91 | 1011.0 |
| 20260507225938 | 75 | 232 | 0.0 | 0.0 | 0.00 | 0.05 | 0.05 | 90 | 1011.0 |
| 20260507225429 | 75 | 236 | 0.0 | 0.0 | 0.00 | 0.05 | 0.05 | 90 | 1010.7 |
| 20260507224925 | 75 | 277 | 0.0 | 0.0 | 0.00 | 0.05 | 0.05 | 90 | 1010.9 |
| 20260507224421 | 75 | 168 | 0.0 | 0.0 | 0.00 | 0.05 | 0.05 | 87 | 1011.0 |
| 20260507223918 | 75 | 229 | 0.0 | 0.0 | 0.00 | 0.05 | 0.05 | 88 | 1011.0 |
| 20260507223414 | 75 | 225 | 0.0 | 0.0 | 0.00 | 0.05 | 0.05 | 89 | 1011.0 |
| 20260507222911 | 75 | 239 | 0.0 | 0.0 | 0.00 | 0.05 | 0.05 | 87 | 1011.0 |
| 20260507222408 | 76 | 236 | 0.0 | 0.0 | 0.00 | 0.05 | 0.05 | 89 | 1011.1 |
| 20260507221905 | 76 | 175 | 0.0 | 0.0 | 0.00 | 0.05 | 0.05 | 89 | 1010.7 |
| 20260507221401 | 76 | 242 | 0.0 | 0.0 | 0.00 | 0.05 | 0.05 | 88 | 1010.7 |
| 20260507220857 | 76 | 241 | 0.0 | 0.0 | 0.00 | 0.05 | 0.05 | 87 | 1010.7 |
| 20260507220355 | 76 | 231 | 0.0 | 0.0 | 0.00 | 0.05 | 0.05 | 90 | 1010.7 |
| 20260507215851 | 77 | 229 | 0.0 | 0.0 | 0.00 | 0.05 | 0.05 | 91 | 1010.6 |
| 20260507215348 | 77 | 213 | 0.0 | 0.0 | 0.00 | 0.05 | 0.05 | 88 | 1010.6 |
| 20260507214845 | 78 | 259 | 0.0 | 0.0 | 0.00 | 0.05 | 0.05 | 87 | 1011.0 |